map of HEL home
HEL - Airport
Location
City:  Helsinki, Uusimaa (Nyland, Uusimaa), Finland
Name:Vantaa
ICAO:EFHK
IATA:HEL

Details
Type:Airport (Aerodrome, Airfield)
Latitude:6019'02"N (60.317222)
Longitude:2457'48"E (24.963333)
Elevation:179 ft (55 m)
Variation:8.96E (WMM2015 magnetic declination)
0.16 annual change
Runways:3
Longest:11286 × 197 ft (3440 × 60 m), paved

Time
Time Zone:UTC+2 (DST+3)
Local Time:

Weather
METAR:EFHK 160450Z 16012KT 9999 -SNRA BKN008 02/00 Q0995 NOSIG
TAF:EFHK 160235Z 1603/1703 16013KT 8000 -SNRA FEW005 BKN007
TEMPO 1603/1612 6000 -RASN BKN004 PROB30 1606/1612 2000 BR
BECMG 1612/1614 SCT015
BECMG 1700/1702 4000 BR

Related Locations
Nearby:
Farthest:NZTB: 11012 mi / 17722 km
Terra Nova Bay [Mario Zucchelli Station], AQ

Find:

   beyond  
but within

Other Information
Maps:
NOTAMs:
Links:
Sources:

  
flag of Finland   

Sectional Chart

Flight Planning
at skyvector.com

Satellite Image

Google Maps Satellite view

 

Copyright © 2004-2017 Karl L. Swartz. All rights reserved.
The Great Circle Mapper name and logo are trademarks of the Great Circle Mapper.
All other trademarks mentioned herein belong to their respective owners.
Please see credits for attibutions and further copyright information.

  Follow gcmap on Facebook Follow gcmap on Twitter Follow gcmap on Google+ GCmap on LinkedIn

hCard Microformat

Geo Microformat